Regional Weather Roundup
Issued by NWS Albany, NY

Home | Current Version | Previous Version | Text Only | Print | Product List | Glossary On
Versions: 1 2 3 4 5 6 7 8 9 10 11 12 13 14 15 16 17 18 19 20 21 22 23 24 25 26 27 28 29 30 31 32 33 34 35 36 37 38 39 40 41 42 43 44 45 46 47 48 49 50
000
ASUS41 KALY 252010
RWRALY

NEW YORK STATE HOURLY WEATHER ROUNDUP
NATIONAL WEATHER SERVICE ALBANY NY
400 PM EDT THU AUG 25 2016

NOTE: "FAIR" INDICATES FEW OR NO CLOUDS BELOW 12,000 FEET WITH NO
SIGNIFICANT WEATHER AND/OR NO OBSTRUCTIONS TO VISIBILITY.

NYZ032-033-038>043-046>054-057>066-NYZ062>081-082-084-252100-
EAST


CITY           SKY/WX    TMP DP  RH WIND       PRES   REMARKS
ALBANY         LGT RAIN  74  72  93 CALM      29.97F FOG
GLENS FALLS    CLOUDY    76  68  76 S7        29.96F
POUGHKEEPSIE   CLOUDY    80  67  64 S3        29.99S
NEWBURGH       PTSUNNY   79  72  78 SW7       30.02F
MONTGOMERY     LGT RAIN  80  72  76 SW5       30.00F
WHITE PLAINS   MOSUNNY   80  65  59 S12       30.02F
ISLIP          CLOUDY    79  66  64 S20G26    30.04F
NEW YORK CITY  PTSUNNY   84  67  56 S18       30.01F
CENTRAL PARK     N/A     84  66  54 MISG        N/A
$$

NYZ005>009-017-018-044>046-055-056-252100-
CENTRAL


CITY           SKY/WX    TMP DP  RH WIND       PRES   REMARKS
FULTON         MOSUNNY   82  72  71 SW6       29.93S
SYRACUSE       CLOUDY    82  71  69 SW6       29.92F
ROME           CLOUDY    78  72  81 SE5       29.95F
ELMIRA         MOSUNNY   84  71  65 SW7       29.97S
BINGHAMTON     PTSUNNY   75  70  84 SW7       30.03S
MONTICELLO     CLOUDY    75  70  83 SW8G16    30.05F
$$

NYZ026>034-041>043-087-252100-
NORTH


CITY           SKY/WX    TMP DP  RH WIND       PRES   REMARKS
WATERTOWN      PTSUNNY   80  71  74 W12       29.91S
FORT DRUM      NOT AVBL
MASSENA        PTSUNNY   82  70  66 SW12G20   29.87F
SARANAC LAKE   CLOUDY    77  66  68 SW14G20   29.95F
PLATTSBURGH    PTSUNNY   82  71  69 SE8       29.87F
$$

NYZ001>004-010>016-019>021-085-252100-
WEST


CITY           SKY/WX    TMP DP  RH WIND       PRES   REMARKS
NIAGARA FALLS  CLOUDY    84  70  62 SW16      29.92
BUFFALO        PTSUNNY   82  71  69 SW16      29.94F
DUNKIRK        MOSUNNY   83  69  62 SW8       29.96F
JAMESTOWN      MOSUNNY   81  70  69 SW9       30.02F
WELLSVILLE     PTSUNNY   81  67  62 W9G21     30.06F
ROCHESTER      CLOUDY    87  71  58 NW7       29.93F HX  93
PENN YAN       CLOUDY    84  69  60 NW5       29.97F
$$

             KEY
       WCI = WIND CHILL INDEX
       VSB = VISIBILITY
       HX  = HEAT INDEX
$$



USA.gov is the U.S. government's official web portal to all federal, state and local government web resources and services.